{"data":{"norad_id":41884,"intl_designator":"2016-078A","name":"CYGFM05","alt_names":[],"object_type":"PAYLOAD","status":"INACTIVE","operator":null,"country":"US","launch_date":"2016-12-15","launch_site_code":"ERAS","launch_vehicle":null,"mission":null,"orbit_class":"UNKNOWN","rcs_meters":0.185,"size_class":null,"mass_kg":null,"dimensions":null,"purposes":["earth_obs"],"wikipedia_slug":null,"has_3d_model":false,"image_url":null,"decayed_at":null,"tle_current":{"epoch":"2026-05-25T03:33:41.230368Z","epoch_age_seconds":58188,"freshness":"FRESH","line1":"1 41884U 16078A   26145.14839387  .00023283  00000+0  32889-3 0  9998","line2":"2 41884  34.9579  53.0223 0009031 291.5383  68.4378 15.55521265525165","mean_motion":15.55521265,"eccentricity":0.0009031,"inclination_deg":34.9579,"raan_deg":53.0223,"arg_perigee_deg":291.5383,"mean_anomaly_deg":68.4378,"bstar":0.00032889,"rev_number":52516,"period_min":92.573469254372,"perigee_km":394.51588798484,"apogee_km":406.75971102771,"semimajor_km":6778.7747995063,"source":"CELESTRAK","updated_at":"2026-05-25T13:38:11.918517Z"}}}